Montgomery, NY

12:48 AM EDT on April 24, 2017 (GMT -0400)
Orange County

Weather History for KMGJ - May, 2014

Change the Weather History Date:

Saturday, May 31, 2014

  Actual Average (KSWF) Record (KSWF)
Temperature  
Mean Temperature 58 °F -  
Max Temperature 72 °F 69 °F 93 °F (1987)
Min Temperature 45 °F 49 °F 33 °F (2008)
Degree Days  
Heating Degree Days 8    
Growing Degree Days 8 (Base 50)    
Moisture  
Dew Point 47 °F    
Average Humidity 78    
Maximum Humidity 97    
Minimum Humidity 44    
Precipitation  
Precipitation 0.01 in - - ()
Sea Level Pressure  
Sea Level Pressure 30.16 in    
Wind  
Wind Speed 3 mph (NE)    
Max Wind Speed 21 mph    
Max Gust Speed 28 mph    
Visibility 6 miles    
Events      
Averages and records for this station are not official NWS values.
T = Trace of Precipitation, MM = Missing Value Source: NWS Daily Summary

Daily Weather History Graph

Daily Weather History Graph

Search for Another Location

Airport or City:

Trip Planner

Search our weather history database for the weather conditions in past years. The results will help you decide how hot, cold, wet, or windy it might be!

Date:

Astronomy

May. 31, 2014 Rise Set
Actual Time 5:26 AM EDT 8:23 PM EDT
Civil Twilight 4:52 AM EDT 8:57 PM EDT
Nautical Twilight 4:10 AM EDT 9:39 PM EDT
Astronomical Twilight 3:21 AM EDT 10:28 PM EDT
Moon 8:01 AM EDT (5/31) 10:39 PM EDT (5/31)
Length of Visible Light 16h 04m
Length of Day
14h 57m
Waxing Crescent, 8% of the Moon is Illuminated
May 31
Waxing Crescent
Jun 5
First Quarter
Jun 13
Full
Jun 19
Last Quarter
Jun 27
New

Hourly Weather History & Observations

Time (EDT) Temp. Windchill Dew Point Humidity Pressure Visibility Wind Dir Wind Speed Gust Speed Precip Events Conditions
12:08 AM 51.1 °F - 50.0 °F 96% 30.10 in 1.8 mi Calm Calm - N/A   Partly Cloudy
12:35 AM 51.1 °F - 48.9 °F 92% 30.10 in 3.0 mi East 4.6 mph - N/A   Partly Cloudy
12:54 AM 52.0 °F - 48.9 °F 89% 30.10 in 10.0 mi NNE 3.5 mph - 0.00 in   Clear
1:54 AM 50.0 °F - 48.0 °F 93% 30.11 in 10.0 mi Calm Calm - 0.01 in   Clear
2:52 AM 48.2 °F - 46.4 °F 93% 30.11 in 1.8 mi Calm Calm - N/A   Scattered Clouds
2:54 AM 48.9 °F - 46.9 °F 93% 30.11 in 1.5 mi Calm Calm - N/A   Scattered Clouds
3:07 AM 48.0 °F - 46.0 °F 93% 30.11 in 3.0 mi Calm Calm - N/A   Partly Cloudy
3:25 AM 48.0 °F - 46.0 °F 93% 30.11 in 2.5 mi Calm Calm - N/A   Scattered Clouds
3:45 AM 48.0 °F - 46.0 °F 93% 30.11 in 1.2 mi SE 3.5 mph - N/A   Mostly Cloudy
3:50 AM 48.2 °F - 46.4 °F 93% 30.11 in 3.0 mi Calm Calm - N/A   Partly Cloudy
3:54 AM 48.0 °F - 46.0 °F 93% 30.11 in 5.0 mi Calm Calm - N/A   Partly Cloudy
4:31 AM 46.0 °F - 45.0 °F 96% 30.12 in 1.8 mi Calm Calm - N/A   Partly Cloudy
4:34 AM 46.0 °F 44.8 °F 44.1 °F 93% 30.12 in 0.8 mi SW 3.5 mph - N/A   Mist
4:42 AM 46.0 °F - 44.1 °F 93% 30.13 in 1.2 mi Calm Calm - N/A   Partly Cloudy
4:46 AM 46.0 °F - 45.0 °F 96% 30.12 in 3.0 mi Calm Calm - N/A   Partly Cloudy
4:54 AM 46.9 °F - 45.0 °F 93% 30.12 in 6.0 mi Calm Calm - N/A   Partly Cloudy
5:11 AM 45.0 °F - 44.1 °F 97% 30.12 in 1.5 mi Calm Calm - N/A   Partly Cloudy
5:18 AM 45.0 °F - 43.0 °F 93% 30.12 in 0.8 mi Calm Calm - N/A   Mostly Cloudy
5:31 AM 46.0 °F - 44.1 °F 93% 30.13 in 1.5 mi Calm Calm - N/A   Scattered Clouds
5:33 AM 46.0 °F - 44.1 °F 93% 30.13 in 3.0 mi Calm Calm - N/A   Scattered Clouds
5:54 AM 46.0 °F - 44.1 °F 93% 30.14 in 9.0 mi Calm Calm - N/A   Clear
6:54 AM 51.1 °F - 48.9 °F 92% 30.16 in 10.0 mi Calm Calm - N/A   Scattered Clouds
7:54 AM 60.1 °F - 51.1 °F 72% 30.17 in 10.0 mi NNW 5.8 mph - N/A   Clear
8:54 AM 64.0 °F - 50.0 °F 60% 30.17 in 10.0 mi NNE 9.2 mph - N/A   Clear
9:54 AM 66.0 °F - 48.9 °F 54% 30.17 in 10.0 mi NE 15.0 mph 20.7 mph N/A   Clear
11:54 AM 68.0 °F - 46.9 °F 47% 30.19 in 10.0 mi NNE 17.3 mph - N/A   Clear
12:54 PM 69.1 °F - 46.0 °F 44% 30.19 in 10.0 mi NNE 20.7 mph 27.6 mph N/A   Partly Cloudy
1:54 PM 70.0 °F - 46.9 °F 44% 30.19 in 10.0 mi NNE 12.7 mph - N/A   Mostly Cloudy
2:54 PM 69.1 °F - 46.9 °F 45% 30.20 in 10.0 mi NE 17.3 mph - N/A   Mostly Cloudy
3:54 PM 68.0 °F - 48.0 °F 49% 30.20 in 10.0 mi ENE 15.0 mph 20.7 mph N/A   Scattered Clouds
4:54 PM 70.0 °F - 48.0 °F 46% 30.20 in 10.0 mi NE 11.5 mph - N/A   Scattered Clouds
5:54 PM 70.0 °F - 46.9 °F 44% 30.21 in 10.0 mi NNE 4.6 mph - N/A   Clear
6:54 PM 69.1 °F - 46.9 °F 45% 30.22 in 10.0 mi NE 8.1 mph - N/A   Clear
7:54 PM 66.9 °F - 46.9 °F 49% 30.24 in 10.0 mi NE 5.8 mph - N/A   Overcast
8:54 PM 60.1 °F - 50.0 °F 69% 30.25 in 10.0 mi Calm Calm - N/A   Mostly Cloudy
9:54 PM 55.0 °F - 48.9 °F 80% 30.27 in 10.0 mi Calm Calm - N/A   Scattered Clouds
10:54 PM 52.0 °F - 48.0 °F 86% 30.28 in 10.0 mi Calm Calm - N/A   Clear